Time,TemperatureF,DewpointF,PressureIn,WindDirection,WindDirectionDegrees,WindSpeedMPH,WindSpeedGustMPH,Humidity,HourlyPrecipIn,Conditions,Clouds,dailyrainin,SoftwareType,DateUTC
2013-02-01 00:03:00,27.0,13.0,29.67,West,278,5.0,-999.0,56,-99.99,,,-99.99,,2013-02-01 05:03:00,
2013-02-01 00:12:00,27.0,13.0,29.67,West,278,5.0,-999.0,56,-99.99,,,-99.99,,2013-02-01 05:12:00,
2013-02-01 00:22:00,27.0,13.0,29.68,NW,324,6.0,-999.0,55,-99.99,,,-99.99,,2013-02-01 05:22:00,
2013-02-01 00:32:00,26.0,10.0,29.68,North,359,6.0,-999.0,51,-99.99,,,-99.99,,2013-02-01 05:32:00,
2013-02-01 00:42:00,26.0,10.0,29.68,North,359,6.0,-999.0,51,-99.99,,,-99.99,,2013-02-01 05:42:00,
2013-02-01 00:52:00,26.0,10.0,29.68,NNW,331,4.0,-999.0,51,-99.99,,,-99.99,,2013-02-01 05:52:00,
2013-02-01 01:02:00,26.0,10.0,29.69,West,259,5.0,-999.0,50,-99.99,,,-99.99,,2013-02-01 06:02:00,
2013-02-01 01:11:00,26.0,10.0,29.69,West,259,5.0,-999.0,50,-99.99,,,-99.99,,2013-02-01 06:11:00,
2013-02-01 01:22:00,25.0,9.0,29.69,WNW,286,5.0,-999.0,50,-99.99,,,-99.99,,2013-02-01 06:22:00,
2013-02-01 01:32:00,25.0,8.0,29.70,WSW,245,6.0,-999.0,48,-99.99,,,-99.99,,2013-02-01 06:32:00,
2013-02-01 01:42:00,25.0,8.0,29.70,WSW,245,6.0,-999.0,48,-99.99,,,-99.99,,2013-02-01 06:42:00,
2013-02-01 01:52:00,25.0,9.0,29.71,WSW,240,5.0,-999.0,49,-99.99,,,-99.99,,2013-02-01 06:52:00,
2013-02-01 02:02:00,25.0,8.0,29.72,West,280,5.0,-999.0,48,-99.99,,,-99.99,,2013-02-01 07:02:00,
2013-02-01 02:12:00,25.0,9.0,29.72,WNW,290,5.0,-999.0,49,-99.99,,,-99.99,,2013-02-01 07:12:00,
2013-02-01 02:22:00,25.0,9.0,29.72,WNW,290,5.0,-999.0,49,-99.99,,,-99.99,,2013-02-01 07:22:00,
2013-02-01 02:32:00,25.0,9.0,29.72,NW,308,3.0,-999.0,49,-99.99,,,-99.99,,2013-02-01 07:32:00,
2013-02-01 02:42:00,25.0,9.0,29.72,NW,308,3.0,-999.0,49,-99.99,,,-99.99,,2013-02-01 07:42:00,
2013-02-01 02:52:00,25.0,9.0,29.72,NW,320,3.0,-999.0,50,-99.99,,,-99.99,,2013-02-01 07:52:00,
2013-02-01 03:01:00,25.0,9.0,29.72,WSW,254,4.0,-999.0,50,-99.99,,,-99.99,,2013-02-01 08:01:00,
2013-02-01 03:11:00,25.0,9.0,29.72,WSW,254,4.0,-999.0,50,-99.99,,,-99.99,,2013-02-01 08:11:00,
2013-02-01 03:21:00,24.0,9.0,29.73,WSW,241,4.0,-999.0,51,-99.99,,,-99.99,,2013-02-01 08:21:00,
2013-02-01 03:32:00,24.0,9.0,29.73,West,260,2.0,-999.0,52,-99.99,,,-99.99,,2013-02-01 08:32:00,
2013-02-01 03:42:00,24.0,9.0,29.73,West,260,2.0,-999.0,52,-99.99,,,-99.99,,2013-02-01 08:42:00,
2013-02-01 03:52:00,24.0,9.0,29.73,SW,233,5.0,-999.0,53,-99.99,,,-99.99,,2013-02-01 08:52:00,
2013-02-01 04:02:00,24.0,10.0,29.74,WNW,301,3.0,-999.0,54,-99.99,,,-99.99,,2013-02-01 09:02:00,
2013-02-01 04:11:00,24.0,10.0,29.74,WNW,301,3.0,-999.0,54,-99.99,,,-99.99,,2013-02-01 09:11:00,
2013-02-01 04:21:00,24.0,10.0,29.74,WSW,245,4.0,-999.0,54,-99.99,,,-99.99,,2013-02-01 09:21:00,
2013-02-01 04:32:00,24.0,10.0,29.73,West,275,3.0,-999.0,55,-99.99,,,-99.99,,2013-02-01 09:32:00,
2013-02-01 04:42:00,24.0,10.0,29.73,West,275,3.0,-999.0,55,-99.99,,,-99.99,,2013-02-01 09:42:00,
2013-02-01 04:52:00,24.0,10.0,29.73,WSW,237,3.0,-999.0,55,-99.99,,,-99.99,,2013-02-01 09:52:00,
2013-02-01 05:01:00,24.0,11.0,29.73,SW,231,2.0,-999.0,57,-99.99,,,-99.99,,2013-02-01 10:01:00,
2013-02-01 05:11:00,24.0,11.0,29.73,SW,231,2.0,-999.0,57,-99.99,,,-99.99,,2013-02-01 10:11:00,
2013-02-01 05:21:00,23.0,10.0,29.74,SW,226,4.0,-999.0,58,-99.99,,,-99.99,,2013-02-01 10:21:00,
2013-02-01 05:32:00,23.0,10.0,29.74,SW,228,4.0,-999.0,58,-99.99,,,-99.99,,2013-02-01 10:32:00,
2013-02-01 05:42:00,23.0,10.0,29.74,SW,228,4.0,-999.0,58,-99.99,,,-99.99,,2013-02-01 10:42:00,
2013-02-01 05:53:00,23.0,11.0,29.75,WSW,245,3.0,-999.0,59,-99.99,,,-99.99,,2013-02-01 10:53:00,
2013-02-01 06:02:00,23.0,11.0,29.76,SW,217,4.0,-999.0,60,-99.99,,,-99.99,,2013-02-01 11:02:00,
2013-02-01 06:11:00,23.0,11.0,29.76,SW,217,4.0,-999.0,60,-99.99,,,-99.99,,2013-02-01 11:11:00,
2013-02-01 06:22:00,23.0,12.0,29.76,WSW,247,3.0,-999.0,61,-99.99,,,-99.99,,2013-02-01 11:22:00,
2013-02-01 06:32:00,23.0,12.0,29.77,SW,236,3.0,-999.0,61,-99.99,,,-99.99,,2013-02-01 11:32:00,
2013-02-01 06:42:00,23.0,12.0,29.77,SW,236,3.0,-999.0,61,-99.99,,,-99.99,,2013-02-01 11:42:00,
2013-02-01 06:53:00,23.0,12.0,29.77,West,264,4.0,-999.0,61,-99.99,,,-99.99,,2013-02-01 11:53:00,
2013-02-01 07:03:00,23.0,12.0,29.78,SW,231,3.0,-999.0,61,-99.99,,,-99.99,,2013-02-01 12:03:00,
2013-02-01 07:12:00,23.0,12.0,29.78,SW,231,3.0,-999.0,61,-99.99,,,-99.99,,2013-02-01 12:12:00,
2013-02-01 07:23:00,23.0,12.0,29.79,WSW,237,4.0,-999.0,61,-99.99,,,-99.99,,2013-02-01 12:23:00,
2013-02-01 07:32:00,23.0,12.0,29.80,WSW,246,3.0,-999.0,61,-99.99,,,-99.99,,2013-02-01 12:32:00,
2013-02-01 07:42:00,23.0,12.0,29.80,WSW,246,3.0,-999.0,61,-99.99,,,-99.99,,2013-02-01 12:42:00,
2013-02-01 07:52:00,23.0,12.0,29.81,WNW,286,3.0,-999.0,62,-99.99,,,-99.99,,2013-02-01 12:52:00,
2013-02-01 08:02:00,23.0,12.0,29.82,SW,230,2.0,-999.0,62,-99.99,,,-99.99,,2013-02-01 13:02:00,
2013-02-01 08:12:00,23.0,12.0,29.82,SW,230,2.0,-999.0,62,-99.99,,,-99.99,,2013-02-01 13:12:00,
2013-02-01 08:22:00,23.0,12.0,29.83,WSW,258,2.0,-999.0,61,-99.99,,,-99.99,,2013-02-01 13:22:00,
2013-02-01 08:33:00,23.0,11.0,29.83,NW,326,2.0,-999.0,60,-99.99,,,-99.99,,2013-02-01 13:33:00,
2013-02-01 08:42:00,23.0,11.0,29.83,NW,326,2.0,-999.0,60,-99.99,,,-99.99,,2013-02-01 13:42:00,
2013-02-01 08:53:00,24.0,11.0,29.84,SW,231,2.0,-999.0,58,-99.99,,,-99.99,,2013-02-01 13:53:00,
2013-02-01 09:03:00,24.0,11.0,29.84,West,268,3.0,-999.0,57,-99.99,,,-99.99,,2013-02-01 14:03:00,
2013-02-01 09:11:00,25.0,11.0,29.83,NW,306,6.0,-999.0,55,-99.99,,,-99.99,,2013-02-01 14:11:00,
2013-02-01 09:22:00,25.0,11.0,29.83,NW,306,6.0,-999.0,55,-99.99,,,-99.99,,2013-02-01 14:22:00,
2013-02-01 09:32:00,25.0,10.0,29.82,NW,312,3.0,-999.0,53,-99.99,,,-99.99,,2013-02-01 14:32:00,
2013-02-01 09:42:00,25.0,10.0,29.82,NW,312,3.0,-999.0,53,-99.99,,,-99.99,,2013-02-01 14:42:00,
2013-02-01 09:53:00,26.0,11.0,29.82,NNW,344,4.0,-999.0,53,-99.99,,,-99.99,,2013-02-01 14:53:00,
2013-02-01 10:02:00,26.0,11.0,29.83,NNW,345,6.0,-999.0,53,-99.99,,,-99.99,,2013-02-01 15:02:00,
2013-02-01 10:12:00,26.0,11.0,29.84,NNE,16,4.0,-999.0,53,-99.99,,,-99.99,,2013-02-01 15:12:00,
2013-02-01 10:22:00,26.0,11.0,29.84,NNE,16,4.0,-999.0,53,-99.99,,,-99.99,,2013-02-01 15:22:00,
2013-02-01 10:33:00,26.0,11.0,29.84,NE,44,6.0,-999.0,52,-99.99,,,-99.99,,2013-02-01 15:33:00,
2013-02-01 10:42:00,26.0,11.0,29.84,NE,44,6.0,-999.0,52,-99.99,,,-99.99,,2013-02-01 15:42:00,
2013-02-01 10:52:00,26.0,10.0,29.83,NW,316,6.0,-999.0,50,-99.99,,,-99.99,,2013-02-01 15:52:00,
2013-02-01 11:03:00,26.0,9.0,29.84,NNW,329,4.0,-999.0,49,-99.99,,,-99.99,,2013-02-01 16:03:00,
2013-02-01 11:11:00,27.0,11.0,29.84,NW,313,4.0,-999.0,50,-99.99,,,-99.99,,2013-02-01 16:11:00,
2013-02-01 11:22:00,27.0,11.0,29.84,NW,313,4.0,-999.0,50,-99.99,,,-99.99,,2013-02-01 16:22:00,
2013-02-01 11:33:00,27.0,11.0,29.84,NW,313,4.0,-999.0,50,-99.99,,,-99.99,,2013-02-01 16:33:00,
2013-02-01 11:43:00,27.0,10.0,29.84,NNW,343,5.0,-999.0,49,-99.99,,,-99.99,,2013-02-01 16:43:00,
2013-02-01 11:52:00,27.0,10.0,29.84,NNW,343,5.0,-999.0,49,-99.99,,,-99.99,,2013-02-01 16:52:00,
2013-02-01 12:02:00,27.0,10.0,29.84,NNW,343,5.0,-999.0,49,-99.99,,,-99.99,,2013-02-01 17:02:00,
2013-02-01 12:12:00,27.0,9.0,29.83,NNW,335,5.0,-999.0,47,-99.99,,,-99.99,,2013-02-01 17:12:00,
2013-02-01 12:22:00,27.0,9.0,29.83,NNW,335,5.0,-999.0,47,-99.99,,,-99.99,,2013-02-01 17:22:00,
2013-02-01 12:32:00,26.0,9.0,29.82,WNW,299,7.0,-999.0,49,-99.99,,,-99.99,,2013-02-01 17:32:00,
2013-02-01 12:42:00,26.0,9.0,29.82,WNW,299,7.0,-999.0,49,-99.99,,,-99.99,,2013-02-01 17:42:00,
2013-02-01 12:53:00,27.0,8.0,29.82,NW,325,4.0,-999.0,44,-99.99,,,-99.99,,2013-02-01 17:53:00,
2013-02-01 13:03:00,28.0,7.0,29.81,NW,316,6.0,-999.0,41,-99.99,,,-99.99,,2013-02-01 18:03:00,
2013-02-01 13:12:00,28.0,7.0,29.81,NW,316,6.0,-999.0,41,-99.99,,,-99.99,,2013-02-01 18:12:00,
2013-02-01 13:22:00,27.0,7.0,29.82,NE,47,7.0,-999.0,42,-99.99,,,-99.99,,2013-02-01 18:22:00,
2013-02-01 13:32:00,26.0,8.0,29.83,North,359,9.0,-999.0,46,-99.99,,,-99.99,,2013-02-01 18:32:00,
2013-02-01 13:42:00,26.0,8.0,29.83,North,359,9.0,-999.0,46,-99.99,,,-99.99,,2013-02-01 18:42:00,
2013-02-01 13:53:00,26.0,8.0,29.84,NE,50,6.0,-999.0,46,-99.99,,,-99.99,,2013-02-01 18:53:00,
2013-02-01 14:03:00,27.0,9.0,29.85,NNW,328,6.0,-999.0,47,-99.99,,,-99.99,,2013-02-01 19:03:00,
2013-02-01 14:12:00,27.0,9.0,29.85,NNW,328,6.0,-999.0,47,-99.99,,,-99.99,,2013-02-01 19:12:00,
2013-02-01 14:22:00,28.0,8.0,29.84,North,4,5.0,-999.0,43,-99.99,,,-99.99,,2013-02-01 19:22:00,
2013-02-01 14:32:00,29.0,9.0,29.85,West,276,5.0,-999.0,43,-99.99,,,-99.99,,2013-02-01 19:32:00,
2013-02-01 14:42:00,29.0,9.0,29.85,West,276,5.0,-999.0,43,-99.99,,,-99.99,,2013-02-01 19:42:00,
2013-02-01 14:52:00,29.0,9.0,29.85,West,276,5.0,-999.0,43,-99.99,,,-99.99,,2013-02-01 19:52:00,
2013-02-01 15:02:00,28.0,8.0,29.87,North,359,4.0,-999.0,43,-99.99,,,-99.99,,2013-02-01 20:02:00,
2013-02-01 15:11:00,27.0,6.0,29.88,WNW,303,7.0,-999.0,41,-99.99,,,-99.99,,2013-02-01 20:11:00,
2013-02-01 15:22:00,27.0,6.0,29.88,WNW,303,7.0,-999.0,41,-99.99,,,-99.99,,2013-02-01 20:22:00,
2013-02-01 15:32:00,27.0,6.0,29.89,NNE,12,6.0,-999.0,41,-99.99,,,-99.99,,2013-02-01 20:32:00,
2013-02-01 15:42:00,27.0,6.0,29.89,NNE,12,6.0,-999.0,41,-99.99,,,-99.99,,2013-02-01 20:42:00,
2013-02-01 15:52:00,26.0,11.0,29.91,NW,325,9.0,-999.0,52,-99.99,,,-99.99,,2013-02-01 20:52:00,
2013-02-01 16:02:00,25.0,12.0,29.92,NE,44,4.0,-999.0,56,-99.99,,,-99.99,,2013-02-01 21:02:00,
2013-02-01 16:12:00,25.0,12.0,29.92,NE,44,4.0,-999.0,56,-99.99,,,-99.99,,2013-02-01 21:12:00,
2013-02-01 16:22:00,25.0,12.0,29.93,NW,313,5.0,-999.0,56,-99.99,,,-99.99,,2013-02-01 21:22:00,
2013-02-01 16:32:00,25.0,11.0,29.93,NW,319,3.0,-999.0,55,-99.99,,,-99.99,,2013-02-01 21:32:00,
2013-02-01 16:42:00,25.0,11.0,29.93,NW,319,3.0,-999.0,55,-99.99,,,-99.99,,2013-02-01 21:42:00,
2013-02-01 16:52:00,22.0,16.0,29.96,NNE,31,8.0,-999.0,77,-99.99,,,-99.99,,2013-02-01 21:52:00,
2013-02-01 17:02:00,22.0,15.0,29.97,NW,324,4.0,-999.0,73,-99.99,,,-99.99,,2013-02-01 22:02:00,
2013-02-01 17:11:00,22.0,15.0,29.97,NW,324,4.0,-999.0,73,-99.99,,,-99.99,,2013-02-01 22:11:00,
2013-02-01 17:21:00,22.0,14.0,29.98,NNW,328,2.0,-999.0,71,-99.99,,,-99.99,,2013-02-01 22:21:00,
2013-02-01 17:32:00,22.0,14.0,29.99,NW,321,1.0,-999.0,70,-99.99,,,-99.99,,2013-02-01 22:32:00,
2013-02-01 17:42:00,22.0,14.0,29.99,NW,321,1.0,-999.0,70,-99.99,,,-99.99,,2013-02-01 22:42:00,
2013-02-01 17:52:00,23.0,13.0,30.00,NW,310,6.0,-999.0,64,-99.99,,,-99.99,,2013-02-01 22:52:00,
2013-02-01 18:02:00,23.0,10.0,30.02,NNW,328,3.0,-999.0,57,-99.99,,,-99.99,,2013-02-01 23:02:00,
2013-02-01 18:11:00,23.0,10.0,30.02,NNW,328,3.0,-999.0,57,-99.99,,,-99.99,,2013-02-01 23:11:00,
2013-02-01 18:22:00,23.0,9.0,30.03,North,359,6.0,-999.0,55,-99.99,,,-99.99,,2013-02-01 23:22:00,
2013-02-01 18:32:00,22.0,8.0,30.04,NE,40,6.0,-999.0,53,-99.99,,,-99.99,,2013-02-01 23:32:00,
2013-02-01 18:42:00,22.0,8.0,30.04,NE,40,6.0,-999.0,53,-99.99,,,-99.99,,2013-02-01 23:42:00,
2013-02-01 18:52:00,22.0,6.0,30.05,NE,37,7.0,-999.0,50,-99.99,,,-99.99,,2013-02-01 23:52:00,
2013-02-01 19:02:00,22.0,8.0,30.06,West,270,3.0,-999.0,53,-99.99,,,-99.99,,2013-02-02 00:02:00,
2013-02-01 19:11:00,22.0,8.0,30.06,West,270,3.0,-999.0,53,-99.99,,,-99.99,,2013-02-02 00:11:00,
2013-02-01 19:21:00,22.0,8.0,30.07,North,4,5.0,-999.0,53,-99.99,,,-99.99,,2013-02-02 00:21:00,
2013-02-01 19:32:00,21.0,7.0,30.07,NNW,341,4.0,-999.0,54,-99.99,,,-99.99,,2013-02-02 00:32:00,
2013-02-01 19:42:00,21.0,7.0,30.07,NNW,341,4.0,-999.0,54,-99.99,,,-99.99,,2013-02-02 00:42:00,
2013-02-01 19:52:00,21.0,7.0,30.08,WNW,297,4.0,-999.0,55,-99.99,,,-99.99,,2013-02-02 00:52:00,
2013-02-01 20:02:00,21.0,8.0,30.09,NW,324,2.0,-999.0,56,-99.99,,,-99.99,,2013-02-02 01:02:00,
2013-02-01 20:11:00,21.0,8.0,30.09,NW,324,2.0,-999.0,56,-99.99,,,-99.99,,2013-02-02 01:11:00,
2013-02-01 20:21:00,21.0,9.0,30.09,NW,316,2.0,-999.0,58,-99.99,,,-99.99,,2013-02-02 01:21:00,
2013-02-01 20:32:00,21.0,10.0,30.10,NW,318,2.0,-999.0,61,-99.99,,,-99.99,,2013-02-02 01:32:00,
2013-02-01 20:42:00,21.0,10.0,30.10,NW,318,2.0,-999.0,61,-99.99,,,-99.99,,2013-02-02 01:42:00,
2013-02-01 20:52:00,20.0,9.0,30.11,NNW,328,3.0,-999.0,63,-99.99,,,-99.99,,2013-02-02 01:52:00,
2013-02-01 21:01:00,20.0,8.0,30.11,NW,324,2.0,-999.0,60,-99.99,,,-99.99,,2013-02-02 02:01:00,
2013-02-01 21:11:00,20.0,8.0,30.11,NW,324,2.0,-999.0,60,-99.99,,,-99.99,,2013-02-02 02:11:00,
2013-02-01 21:22:00,20.0,8.0,30.12,NW,316,1.0,-999.0,58,-99.99,,,-99.99,,2013-02-02 02:22:00,
2013-02-01 21:32:00,20.0,8.0,30.12,NNW,336,0.0,-999.0,58,-99.99,,,-99.99,,2013-02-02 02:32:00,
2013-02-01 21:42:00,20.0,8.0,30.12,NNW,336,0.0,-999.0,58,-99.99,,,-99.99,,2013-02-02 02:42:00,
2013-02-01 21:52:00,20.0,6.0,30.12,WNW,299,2.0,-999.0,55,-99.99,,,-99.99,,2013-02-02 02:52:00,
2013-02-01 22:02:00,20.0,6.0,30.12,WNW,299,2.0,-999.0,55,-99.99,,,-99.99,,2013-02-02 03:02:00,
2013-02-01 22:11:00,20.0,6.0,30.12,WNW,299,2.0,-999.0,55,-99.99,,,-99.99,,2013-02-02 03:11:00,
2013-02-01 22:22:00,20.0,6.0,30.12,WNW,299,2.0,-999.0,55,-99.99,,,-99.99,,2013-02-02 03:22:00,
2013-02-01 22:32:00,19.0,5.0,30.14,NW,313,1.0,-999.0,54,-99.99,,,-99.99,,2013-02-02 03:32:00,
2013-02-01 22:42:00,20.0,5.0,30.14,NNW,344,3.0,-999.0,51,-99.99,,,-99.99,,2013-02-02 03:42:00,
2013-02-01 22:52:00,20.0,5.0,30.14,NNW,344,3.0,-999.0,51,-99.99,,,-99.99,,2013-02-02 03:52:00,
2013-02-01 23:02:00,19.0,5.0,30.14,WNW,291,1.0,-999.0,53,-99.99,,,-99.99,,2013-02-02 04:02:00,
2013-02-01 23:11:00,19.0,5.0,30.14,WNW,291,1.0,-999.0,53,-99.99,,,-99.99,,2013-02-02 04:11:00,
2013-02-01 23:22:00,19.0,5.0,30.15,WNW,289,1.0,-999.0,54,-99.99,,,-99.99,,2013-02-02 04:22:00,
2013-02-01 23:32:00,19.0,6.0,30.16,NW,321,2.0,-999.0,56,-99.99,,,-99.99,,2013-02-02 04:32:00,
2013-02-01 23:42:00,19.0,6.0,30.16,NW,321,2.0,-999.0,56,-99.99,,,-99.99,,2013-02-02 04:42:00,
2013-02-01 23:52:00,19.0,6.0,30.16,WNW,291,1.0,-999.0,56,-99.99,,,-99.99,,2013-02-02 04:52:00,